カタログに戻る

COSMOS 839 DEB

運用中UNKNOWN
NORAD 10463·DEBRIS·🇷🇺 Russia

打ち上げ Jul 8, 1976 から Plesetsk Cosmodrome

Loading…

次のパス (今後24時間)

TLE

最新Source: Space-Track

元期: Sep 14, 2026, 14:26 UTC

1 10463U 76067AG  26257.60144653 -.00000045  00000-0  37839-4 0  9995
2 10463  65.8227 115.9092 0695512 347.6338  38.2671 12.32562676257499

AllMySatでCOSMOS 839 DEBをリアルタイム追跡

Download on the App Store